www.pogodaiklimat.ru

Погода и климат >> Архив погоды >> Украина >> Ильичевск


ПОГОДА в Ильичёвске

  • Прогноз погоды в Ильичёвске
  • Монитор погоды в Ильичёвске
  • Климат города

АРХИВ ПОГОДЫ в Ильичёвске

Время (UTC), дата Ветер
(напр.,м/с)
 
Видим.   Явления Облачность Т
(С)
Тd
(С)
f
(%)
Тe
(С)
Тes
(С)
Комфортность P
(гПа)
Po
(гПа)
Тmin
(С)
Tmax
(С)
R
(мм)
R24
(мм)
S
(см)
21 21.06 З 3 н/о 4 балла +21.9 +18.7 82 +27 +27 душно 1011.4 1005.3
00 22.06 СЗ 3 10 км 6/0
[Ci sp]
+20.4 +18.1 87 +24 +24 комфорт 1011.1 1011.0
03 22.06 2 н/о ясно +18.6 +18.6 100 +20 +21 1014.2 1008.0
06 22.06 СЗ 2 ясно 51 1009.3
09 22.06 З 3 ясно 32 1010.7
12 22.06 С 3 30 км 8/1 600 м
[Cu med, cong Ci]
+27.6 +9.9 33 +28 +38 жарко 1013.4 1013.0
15 22.06 СЗ 4 9 баллов 36 1009.3
18 22.06 З 1 5 баллов 45 1009.3
21 22.06 С 2 7 баллов 49 1009.3
00 23.06 З 2 7 баллов 62 1010.7 0.0
03 23.06 З 2 9 баллов 82 1009.3
06 23.06 Ю 1 ясно 84 1009.3 0.0
09 23.06 Ю 2 ясно 80 1008.0
12 23.06 Ю 2 18 км 8/0
[Ci fib]
+23.5 +21.1 86 +30 +42 очень
душно
1009.7 1010.0
15 23.06 СЗ 5 слабый дождь н/о 70 1005.3
18 23.06 ЮЗ 2 10 км {гроза, ливн. осадки} 8/8 630 м
[Cb cap]
+19.4 +17.3 88 +22 +22 комфорт 1006.4 1006.0 +23.9 5
21 23.06 З 2 в посл. час ливневой дождь н/о 88 1002.7
00 24.06 СЗ 3 н/о ясно +19.1 +16.5 85 +21 1008.8 1002.7 2.0
03 24.06 З 2 ясно 88 1004.0
06 24.06 СЗ 3 7 баллов 80 1005.3 2.0
09 24.06 СЗ 3 8 баллов 41 1006.7
12 24.06 СЗ 5 7 баллов 55 1006.7
15 24.06 С 4 5 баллов 44 1008.0
18 24.06 З 1 н/о 4 балла +25.2 +12.4 45 +27 +27 жарко 1014.0 1008.0
21 24.06 З 1 ясно 71 1009.3
00 25.06 СЗ 2 10 км ясно +19.4 +14.8 75 +22 +22 комфорт 1014.1 1014.0
03 25.06 СЗ 2 ясно 84 1010.7
06 25.06 штиль 0 н/о ясно +23.6 +16.1 63 +27 +38 жарко 1016.8 1010.7
09 25.06 Ю 2 ясно 69 1012.0
12 25.06 Ю 2 30 км 5/5 600 м
[Cu med, cong]
+22.5 +18.2 77 +28 +36 душно 1015.3 1015.0
15 25.06 Ю 3 ясно 71 1010.7
18 25.06 ЮЗ 2 ясно 79 1010.7
21 25.06 ЮЗ 1 н/о ясно +22.4 +19.2 82 +28 +28 душно 1015.4 1009.3
00 26.06 штиль 0 10 км ясно +20.4 +16.6 79 +23 +23 комфорт 1014.2 1014.0
03 26.06 штиль 0 ясно 91 1009.3
06 26.06 Ю 2 ясно 85 1009.3
09 26.06 Ю 3 ясно 87 1009.3
12 26.06 Ю 3 30 км ясно +24.4 +21.9 86 +31 +44 очень
душно
1013.0 1013.0
15 26.06 Ю 4 ясно 85 1008.0
18 26.06 Ю 3 ясно 92 1008.0
21 26.06 штиль 0 ясно 87 1008.0
00 27.06 Ю 1 10 км ясно +20.2 +19.1 93 +25 +25 комфорт 1011.6 1012.0
03 27.06 штиль 0 дымка ясно 97 1008.0
06 27.06 Ю 2 ясно 86 1008.0
09 27.06 Ю 3 ясно 76 1009.3
12 27.06 Ю 4 20 км ясно +23.2 +20.1 83 +30 +41 очень
душно
1012.0 1012.0
15 27.06 Ю 4 ясно 78 1006.7
18 27.06 ЮЗ 1 7 баллов 77 1008.0
21 27.06 СЗ 1 7 баллов 79 1008.0
00 28.06 СЗ 1 10 км {гроза} ясно +21.4 +18.9 86 +26 +26 душно 1011.3 1011.0
03 28.06 С 1 ясно 78 1006.7
06 28.06 СВ 3 ясно 69 1008.0
09 28.06 ЮВ 3 2 балла 83 1008.0
12 28.06 Ю 2 18 км 4/3 600 м
[Cu med, cong Ci fib]
+25.0 +21.5 81 +32 +42 очень
душно
1011.1 1011.0
15 28.06 Ю 4 ясно 84 1006.7

 

Местоположение метеостанции Ильичевск (Одесская область, Украина): широта 46.40 долгота 30.70 высота над уровнем моря 52 м.

В архиве по умолчанию представлена погода в Ильичёвске за последнюю неделю. Архивные данные за месяц целиком и за предыдущие месяцы, начиная с января 2011 года, Вы можете получить, выбрав интересующий диапазон дат из раскрывающегося списка и нажав кнопку "Ввод!".

Внимание! Время в таблицах - всемирное. Для получения местного времени необходимо прибавить поправку, которая в Ильичёвске равна 2 ч.

Смотрите также архив погоды в соседних городах и на ближайших метеорологических станциях:

Погода в Одессе (Одесская область, Украина) (6 км)
Погода в Белгород-Днестровском (Одесская область, Украина) (35 км)
Погода в Раздельной (Одесская область, Украина) (69 км)
Погода в Сербке (Одесская область, Украина) (69 км)
Погода в Заставе (Одесская область, Украина) (70 км)
Погода в Очакове (Николаевская область, Украина) (70 км)
Погода в Сарате (Одесская область, Украина) (90 км)
Погода в Штефан Водэ (Молдова) (94 км)
Погода в Тирасполе (Молдова) (101 км)
Погода в Вилково (Одесская область, Украина) (108 км)

Пояснения к столбцам:

Ветер - указаны скорость ветра в м/с - средняя за 10 мин, порывы в срок и между сроками (в фигурных скобках) и направление, откуда дует ветер: С - северный, СВ - северо-восточный, В - восточный, ЮВ - юго-восточный, Ю - южный, ЮЗ - юго-западный, З - западный, СЗ - северо-западный.
Видимость - горизонтальная дальность видимости в метрах или километрах. При видимости от 1 до 10 км при отсутствии осадков обычно наблюдается дымка, при ухудшении видимости до 1 км и менее - туман. В сухую погоду видимость может ухудшаться дымом, пылью или мглою.
Явления - указаны атмосферные явления, наблюдавшиеся в срок или в последний час перед сроком; фигурными скобками обозначены явления, наблюдавшиеся между сроками (за 1-3 часа до срока); квадратными скобками обозначены град или гололедные отложения с указанием их диаметра в мм.
Облачность - указаны через наклонную черту общая и нижняя облачность в баллах и высота нижней границы облаков в метрах; квадратными скобками обозначены формы облаков: Ci - перистые, Cs - перисто-слоистые, Cc - перисто-кучевые, Ac - высококучевые, As - высокослоистые, Sc - слоисто-кучевые, Ns - слоисто-дождевые, Cu - кучевые, Cb - кучево-дождевые. Подробнее классификацию облаков см. в Атласе облаков (PDF).
T - Температура воздуха - температура, измеренная на высоте 2 м над землей.
Td - Температура точки росы - температура, при понижении до которой содержащийся в воздухе водяной пар достигнет насыщения.
f - Относительная влажность воздуха - влажноcть воздуха, измеренная на высоте 2 м над землей.
Te - Эффективная температура - температура, которую ощущает одетый по сезону человек в тени. Характеристика душности погоды. При расчете учитывается влияние влажности воздуха и скорости ветра на теплоощущения человека.
Tes - Эффективная температура на солнце - температура, которую ощущает человек, с поправкой на солнечный нагрев. Характеристика знойности погоды. Зависит от высоты солнца над горизонтом, облачности и скорости ветра. Ночью, в пасмурную погоду, а также при ветре 12 м/с и более поправка равна нулю.
P - Атмосферное давление - приведенное к уровню моря атмосферное давление.
Po - Атмосферное давление - измеренное на уровне метеостанции атмосферное давление.
Tmin - Минимальная температура - минимум температуры воздуха на высоте 2 м над землей.
Tmax - Максимальная температура - максимум температуры воздуха на высоте 2 м над землей.
R - Количество осадков - Количество выпавших осадков за период времени, мм. При наведении курсора мыши на число - период времени, за который выпало указанное количество осадков.
R24 - Количество осадков - Количество выпавших осадков за 24 часа, мм.
S - Снежный покров - Высота снежного покрова, см. При наведении курсора мыши на число - состояние снежного покрова и степень покрытия местности в баллах.